User: anonymous   Login
Location: Fort Wayne
(41.1310°N, 85.1290°W)
Time: 13:27:39
(UTC-04:00)
Language:

Cosmos 2227 Rocket - Orbit

View from above orbital plane
View from above orbital plane
View from above satellite
View from above satellite

Ground track
Ground track

The orbit data is extracted from the following two-line orbital elements,

1 22285U 92093B   17117.90230514 -.00000287 +00000-0 -12384-3 0  9993
2 22285 071.0211 317.7668 0005627 225.6379 134.4283 14.15007504255144
Epoch (UTC): 27 April 2017 21:39:19
Eccentricity: 0.0005627
inclination: 71.0211°
perigee height: 838 km
apogee height: 846 km
right ascension of ascending node: 317.7668°
argument of perigee: 225.6379°
revolutions per day: 14.15007504
mean anomaly at epoch: 134.4283°
orbit number at epoch: 25514

The dashed part of the orbit path shows where the satellite is in the earth's shadow,  

DLR